Other Public Products
Issued by NWS Charleston, SC

Current Version | Previous Version | Graphics & Text | Print | Product List | Glossary On
Versions: 1 2 3 4 5 6 7 8 9 10 11 12 13 14 15 16 17 18 19 20 21 22 23 24 25 26 27 28 29 30 31 32 33 34 35 36 37 38 39 40 41 42 43 44 45 46 47 48 49 50
000 FPUS82 KCHS 200527 OPUCHS TEST...KCHS/KSAV Gateway Observations...TEST National Weather Service Charleston SC 100 AM EDT SUN AUG 20 2017 NOTE: "fair" indicates few or no clouds below 12,000 feet with no significant weather and/or obstructions to visibility. SCZ050-WAZ558-NCZ071-TXZ119-213-PAZ071-DCZ001-FLZ074-172-MI076- NYZ176-178-MAZ016-IL014-TNZ027-NJZ106-GAZ044-MD014-200600- ...Gateway Observations for Charleston International... CITY SKY/WX TMP DP RH WIND PRES REMARKS Chas Airport CLEAR 80 79 96 S5 29.99S Seattle PTCLDY 66 49 54 N10 30.16S Charlotte PTCLDY 73 71 93 CALM 30.03R Dallas DFW CLOUDY 89 71 55 SE13 29.96R HX 95 Dallas Love MOCLDY 89 71 55 SE16 29.97R HX 95 Philladelphia PTCLDY 73 59 61 W7 29.96R Wash National PTCLDY 73 63 70 NW7 30.00R Baltimore PTCLDY 68 66 93 W3 29.98S Miami CLOUDY 82 72 71 SE7 29.99F Detroit CLEAR 66 60 81 S5 30.03R Newark PTCLDY 77 64 64 W12 29.90R Laguardia PTCLDY 80 65 59 W14 29.89R J F K PTCLDY 77 70 79 SW14 29.90R Boston Logan PTCLDY 72 65 78 SW8 29.84S Ft. Lauderdale CLOUDY 82 76 81 SE9 29.98F Chicago O`Hare CLEAR 70 55 59 S3 29.99R Chicago Midway CLEAR 73 55 53 S3 29.99R Houston Bush CLEAR 84 75 74 S5 30.00R HX 92 Houston Hobby PTCLDY 85 75 72 S7 29.99S HX 93 Nashville CLEAR 76 71 85 S5 30.02S Atlanta PTCLDY 76 69 79 NW5 30.04S $$ GAZ044-118-TXZ119-213-NCZ071-DCZ001-MDZ014-506-PAZ021-071-NJZ106- NYZ176-178-MAZ106-OHZ011-021-055-MIZ076-KYZ091-ILZ014-INZ047- MNZ060-ONZ431-200600- ...Gateway Observations for Savannah International... CITY SKY/WX TMP DP RH WIND PRES REMARKS Savannah Arpt CLEAR 80 76 87 CALM 30.00R Atlanta PTCLDY 76 69 79 NW5 30.04S Charlotte PTCLDY 73 71 93 CALM 30.03R Dallas DFW CLOUDY 89 71 55 SE13 29.96R HX 95 Houston Bush CLEAR 84 75 74 S5 30.00R HX 92 Wash National PTCLDY 73 63 70 NW7 30.00R Wash Dulles PTCLDY 67 66 97 CALM 30.00R Baltimore PTCLDY 68 66 93 W3 29.98S Philadelphia PTCLDY 73 59 61 W7 29.96R Newark PTCLDY 77 64 64 W12 29.90R Laguardia PTCLDY 80 65 59 W14 29.89R J F K PTCLDY 77 70 79 SW14 29.90R Boston PTCLDY 72 65 78 SW8 29.84S Pittsburg CLEAR 64 63 96 CALM 30.05R Akron CLEAR 63 58 83 CALM 30.05R Cleveland CLEAR 66 62 87 CALM 30.05R Cincinnati MOCLDY 72 69 90 SW5 30.03R Columbus CLEAR 65 65 100 CALM 30.03S Detroit CLEAR 66 60 81 S5 30.03R Chicago O`Hare CLEAR 70 55 59 S3 29.99R Minneapolis CLEAR 69 62 78 SE6 29.90S Indianapolis PTCLDY 74 62 66 E6 30.01R Toronto Canada PTCLDY 63 55 77 W9 29.97R $$

USA.gov is the U.S. government's official web portal to all federal, state and local government web resources and services.